Weather History for CWZL - February, 2012

Change the Weather History Date:

Thursday, February 9, 2012

  Actual Average Record
Temperature  
Mean Temperature 45 °F -  
Max Temperature 47 °F - - ()
Min Temperature 41 °F - - ()
Degree Days  
Heating Degree Days 20    
Moisture  
Dew Point 42 °F    
Average Humidity 86    
Maximum Humidity 98    
Minimum Humidity 72    
Precipitation  
Precipitation 0.00 in - - ()
Sea Level Pressure  
Sea Level Pressure 29.81 in    
Wind  
Wind Speed 21 mph ()    
Max Wind Speed 44 mph    
Max Gust Speed -    
T = Trace of Precipitation, MM = Missing Value Source: Averaged Metar Reports

Daily Weather History Graph

Daily Weather History Graph

Search for Another Location

Airport or City:

Trip Planner

Search our weather history database for the weather conditions in past years. The results will help you decide how hot, cold, wet, or windy it might be!

Date:

Astronomy

Feb. 09, 2012 Rise Set
Actual Time 8:16 AM PST 5:45 PM PST
Civil Twilight 7:39 AM PST 6:22 PM PST
Nautical Twilight 6:58 AM PST 7:03 PM PST
Astronomical Twilight 6:18 AM PST 7:43 PM PST
Moon 8:53 PM PST (2/9) 8:30 AM PST (2/9)
Length of Visible Light 10h 42m
Length of Day
9h 29m
Waning Gibbous, 95% of the Moon is Illuminated
Feb 9
Waning Gibbous
Feb 14
Last Quarter
Feb 21
New
Feb 29
First Quarter
Mar 8
Full

Hourly Weather History & Observations

Time (PST) Temp. Windchill Dew Point Humidity Pressure Visibility Wind Dir Wind Speed Gust Speed Precip Events Conditions
12:00 AM 44.2 °F 36.7 °F 42.6 °F 94% 30.03 in - SE 17.3 mph - N/A   Unknown
1:00 AM 43.3 °F 36.5 °F 42.8 °F 98% 30.01 in - SE 13.8 mph - N/A   Unknown
2:00 AM 45.3 °F 36.9 °F 43.9 °F 95% 29.98 in - SE 23.0 mph - N/A   Unknown
3:00 AM 45.1 °F 37.1 °F 43.3 °F 93% 29.95 in - ESE 20.7 mph - N/A   Unknown
4:00 AM 46 °F - 43 °F 84% 29.91 in - ESE 20.7 mph - -  
4:00 AM 45.5 °F 37.6 °F 42.6 °F 90% 29.91 in - ESE 20.7 mph - N/A   Unknown
5:00 AM 46.0 °F 36.9 °F 42.1 °F 86% 29.83 in - SE 28.8 mph - N/A   Unknown
6:00 AM 46.4 °F 37.2 °F 41.5 °F 83% 29.77 in - ESE 29.9 mph - N/A   Unknown
7:00 AM 46.4 °F 37.0 °F 40.6 °F 80% 29.72 in - ESE 31.1 mph - N/A   Unknown
8:00 AM 45.0 °F 34.4 °F 41.7 °F 88% 29.68 in - SE 35.7 mph - N/A   Unknown
10:00 AM 46 °F - 43 °F 84% 29.59 in - ESE 41.4 mph - -  
10:00 AM 45.7 °F 34.7 °F 42.6 °F 89% 29.59 in - ESE 41.4 mph - N/A   Unknown
11:00 AM 44.6 °F 33.2 °F 43.5 °F 96% 29.60 in - SE 41.4 mph - N/A   Unknown
12:00 PM 45.0 °F 34.0 °F 44.1 °F 97% 29.58 in - SE 39.1 mph - N/A   Unknown
1:00 PM 45.5 °F 34.2 °F 45.0 °F 98% 29.57 in - SE 43.7 mph - N/A   Unknown
2:00 PM 46.2 °F 35.9 °F 45.7 °F 98% 29.57 in - SSE 38.0 mph - N/A   Unknown
3:00 PM 47.5 °F - 45.7 °F 93% 29.68 in - South 31.1 mph - N/A   Unknown
4:00 PM 47 °F - 42 °F 78% 29.76 in - South 18.4 mph - -  
4:00 PM 46.8 °F - 42.3 °F 84% 29.76 in - South 18.4 mph - N/A   Unknown
5:00 PM 46.4 °F 39.0 °F 38.8 °F 75% 29.82 in - South 19.6 mph - N/A   Unknown
6:00 PM 45.7 °F 39.5 °F 39.4 °F 79% 29.86 in - South 13.8 mph - N/A   Unknown
7:00 PM 45.3 °F 38.4 °F 39.9 °F 81% 29.90 in - SSE 16.1 mph - N/A   Unknown
8:00 PM 44.6 °F 39.7 °F 38.5 °F 79% 29.94 in - South 9.2 mph - N/A   Unknown
9:00 PM 44.2 °F 40.3 °F 36.9 °F 75% 29.96 in - SSW 6.9 mph - N/A   Unknown
10:00 PM 44 °F - 38 °F 72% 29.99 in - South 10.4 mph - -  
10:00 PM 43.5 °F 37.9 °F 37.9 °F 81% 29.99 in - South 10.4 mph - N/A   Unknown
11:00 PM 41.9 °F 40.0 °F 37.0 °F 83% 30.00 in - SSW 3.5 mph - N/A   Unknown